Simultaneous Nadir Overpasses (SNOs) Predictions

Prediction of SNOs between GOES-16 and LANDSAT-8 Satellite Orbit:

Table of predicted SNOs for the next 14.0 days since TLE Epoch: 7/4/2020
Index Date Time (GOES-16) GOES-16 Lat,Lon LANDSAT-8 Lat,Lon Distance(km) Time Diff (sec)
1 07/05/2020 15:08:59 -0.01, -75.20 -0.28, -73.92 145.70 80
2 07/06/2020 03:30:23 0.01, -75.19 -0.79, -79.12 446.42 80
3 07/07/2020 14:56:49 -0.01, -75.21 -0.93, -70.97 482.67 80
4 07/08/2020 03:18:12 0.01, -75.20 -0.20, -76.16 109.24 80
5 07/10/2020 03:03:23 0.01, -75.21 0.46, -73.21 228.85 80
6 07/10/2020 15:24:37 -0.01, -75.24 0.68, -78.35 355.13 80
7 07/12/2020 15:12:27 -0.01, -75.26 0.02, -75.40 16.14 80
8 07/14/2020 15:02:57 -0.02, -75.29 -0.65, -72.45 323.29 80
9 07/15/2020 03:24:21 0.02, -75.29 -0.48, -77.64 267.84 80
10 07/17/2020 03:09:30 0.02, -75.32 0.13, -74.68 71.93 80
